Regional Weather Roundup
Issued by NWS

Home | Current Version | Previous Version | Graphics & Text | Print | Product List | Glossary On
Versions: 1 2 3 4 5 6 7 8 9 10 11 12 13 14 15 16 17 18 19 20 21 22 23 24 25 26 27 28 29 30 31 32 33 34 35 36 37 38 39 40 41 42 43 44 45 46 47 48 49 50
000
ASUS43 KFSD 021702
RWRSD

WEATHER ROUNDUP FOR SOUTH DAKOTA
NATIONAL WEATHER SERVICE SIOUX FALLS SD
1200 PM CDT SUN AUG 02 2015

NOTE: "FAIR" INDICATES FEW OR NO CLOUDS BELOW 12,000 FEET WITH NO
SIGNIFICANT WEATHER AND/OR OBSTRUCTIONS TO VISIBILITY.


SDZ001>005-009-010-012>017-021800-
NORTHWEST AND NORTH CENTRAL SOUTH DAKOTA

CITY           SKY/WX    TMP DP  RH WIND       PRES   REMARKS
BUFFALO          N/A     78  49  35 NE15      29.96R
FAITH            N/A     79  49  34 N16G24    29.96R
MOBRIDGE       SUNNY     79  57  46 N14G22    29.91S
$$

SDZ012>016-024>037-041>051-057-063-072>074-021800-
SOUTHWEST AND SOUTH CENTRAL SOUTH DAKOTA

CITY           SKY/WX    TMP DP  RH WIND       PRES   REMARKS
RAPID CTY ARPT MOSUNNY   77  53  43 N7        30.01S
PIERRE         SUNNY     83  57  41 NE14      29.89R
CUSTER         PTSUNNY   81  53  37 VRB5      30.12F
ELLSWORTH AFB  SUNNY     77  52  42 VRB2      30.01R
PHILIP         SUNNY     82  58  43 NE10      29.94R
PINE RIDGE     SUNNY     83  56  39 NE7       29.99R
WINNER         FAIR      85  59  41 N12       29.90R
$$

SDZ004>011-016>023-039-040-021800-
NORTHEAST SOUTH DAKOTA

CITY           SKY/WX    TMP DP  RH WIND       PRES   REMARKS
ABERDEEN       SUNNY     80  59  48 N14       29.86R
WATERTOWN      SUNNY     78  60  53 N21G26    29.84R
BROOKINGS      SUNNY     79  66  65 N18       29.84R
SISSETON         N/A     75  62  64 N16G26    29.81R
$$

SDZ017-020-022-023-036>040-048>070-021800-
SOUTHEAST SOUTH DAKOTA

CITY           SKY/WX    TMP DP  RH WIND       PRES   REMARKS
SIOUX FALLS    PTSUNNY   82  66  58 N10G17    29.81R
HURON          SUNNY     78  62  57 N16       29.85R
CHAMBERLAIN    SUNNY     81  64  55 N13       29.88R
MITCHELL       SUNNY     80  67  64 N14       29.84R
YANKTON        SUNNY     82  66  57 NW14      29.80S
$$

ABBREVIATIONS USED IN REMARKS
   TC - TEMPERATURE IN CELSIUS
  WCI - WIND CHILL INDEX
   HX - HEAT INDEX
  VSB - VISIBILITY




USA.gov is the U.S. government's official web portal to all federal, state and local government web resources and services.